Knoxville Regional Airport (TYS)

 

Airport Diagram
Current Weather/Forecast (VFR Conditions)
METAR KTYS 210453Z 24005KT 10SM FEW100 21/16 A3026 RMK AO2 SLP238 T02110156 402940167
TAF KTYS 202328Z 2100/2124 VRB04KT P6SM FEW050 FM211500 VRB03KT P6SM FEW250

All Charts
General
Chart Name Download
AIRPORT DIAGRAM
TAKEOFF MINIMUMS
ALTERNATE MINIMUMS
RADAR MINIMUMS
HOT SPOT

Departures
Chart Name Download
KNOXVILLE SIX

Approaches
Chart Name Download
HI-ILS OR LOC RWY 05L
HI-ILS OR LOC RWY 23L
HI-ILS OR LOC RWY 23R
ILS OR LOC RWY 05L
ILS OR LOC RWY 23L
ILS OR LOC RWY 23R
ILS RWY 23R (SA CAT I)
ILS RWY 23R (CAT II)
RNAV (GPS) RWY 05L
RNAV (GPS) RWY 05R
RNAV (GPS) RWY 23L
RNAV (GPS) RWY 23R
HI-VOR/DME OR TACAN RWY 05L
HI-VOR/DME OR TACAN RWY 23R
VOR RWY 23L
VOR RWY 23R


Inbound Traffic (Arrivals)

No inbound traffic.


Outbound Traffic (Departures)

No outbound traffic.